Regional Weather Roundup
Issued by NWS

Home | Current Version | Previous Version | Graphics & Text | Print | Product List | Glossary On
Versions: 1 2 3 4 5 6 7 8 9 10 11 12 13 14 15 16 17 18 19 20 21 22 23 24 25 26 27 28 29 30 31 32 33 34 35 36 37 38 39 40 41 42 43 44 45 46 47 48 49 50
000
ASUS43 KFSD 212302
RWRSD

WEATHER ROUNDUP FOR SOUTH DAKOTA
NATIONAL WEATHER SERVICE SIOUX FALLS SD
600 PM CDT FRI JUL 21 2017

NOTE: "FAIR" INDICATES FEW OR NO CLOUDS BELOW 12,000 FEET WITH NO
SIGNIFICANT WEATHER AND/OR OBSTRUCTIONS TO VISIBILITY.


SDZ001>005-009-010-012>017-220000-
NORTHWEST AND NORTH CENTRAL SOUTH DAKOTA

CITY           SKY/WX    TMP DP  RH WIND       PRES   REMARKS
BUFFALO          N/A     91  39  16 NW18G26   29.84S
FAITH            N/A     94  60  32 NW13G18   29.83S
MOBRIDGE       PTSUNNY   93  74  53 N3        29.75S HX 103
$$

SDZ012>016-024>037-041>051-057-063-072>074-220000-
SOUTHWEST AND SOUTH CENTRAL SOUTH DAKOTA

CITY           SKY/WX    TMP DP  RH WIND       PRES   REMARKS
RAPID CTY ARPT SUNNY     94  48  20 N20G29    29.91S
PIERRE         CLOUDY    97  63  32 NE6       29.73F HX  98
CUSTER         SUNNY     87  33  14 W8G18     30.09S
ELLSWORTH AFB  SUNNY     93  48  21 NW21G30   29.91S
PHILIP         PTSUNNY   98  56  24 W16G23    29.78F HX  96
PINE RIDGE     SUNNY     94  57  28 N12       29.90F
SPEARFISH        N/A    N/A N/A N/A MISG        N/A
WINNER         FAIR     102  64  28 NW10      29.77F HX 105
$$

SDZ004>011-016>023-039-040-220000-
NORTHEAST SOUTH DAKOTA

CITY           SKY/WX    TMP DP  RH WIND       PRES   REMARKS
ABERDEEN       SUNNY     88  73  61 CALM      29.76S HX  95
WATERTOWN      MOSUNNY   87  73  62 S12       29.79F
BROOKINGS      SUNNY     84  72  67 S13       29.81F
SISSETON         N/A     89  77  67 SE10      29.73F HX 101
$$

SDZ017-020-022-023-036>040-048>070-220000-
SOUTHEAST SOUTH DAKOTA

CITY           SKY/WX    TMP DP  RH WIND       PRES   REMARKS
SIOUX FALLS    PTSUNNY   83  75  77 SE13      29.80F
HURON          PTSUNNY   89  72  56 SE12      29.75F HX  96
CHAMBERLAIN    MOSUNNY   98  68  37 SE5       29.75F HX 103
MITCHELL       SUNNY     88  74  63 SE13      29.77F HX  96
YANKTON        SUNNY     88  77  69 NE12      29.77S HX 100
$$

ABBREVIATIONS USED IN REMARKS
   TC - TEMPERATURE IN CELSIUS
  WCI - WIND CHILL INDEX
   HX - HEAT INDEX
  VSB - VISIBILITY





USA.gov is the U.S. government's official web portal to all federal, state and local government web resources and services.